Burbank, CA

6:37 PM PDT on May 23, 2017 (GMT -0700)
Burbank-Glendale-Pasadena

Weather History for KBUR - January, 2014

Change the Weather History Date:

Friday, January 31, 2014

  Actual Average Record
Temperature  
Mean Temperature 60 °F 55 °F  
Max Temperature 67 °F 68 °F 91 °F (2003)
Min Temperature 53 °F 43 °F 28 °F (1975)
Degree Days  
Heating Degree Days 5 10  
Month to date heating degree days 67 316  
Since 1 July heating degree days 365 883  
Cooling Degree Days 0 0  
Month to date cooling degree days 37 2  
Year to date cooling degree days 37 2  
Growing Degree Days 10 (Base 50)    
Moisture  
Dew Point 37 °F    
Average Humidity 54    
Maximum Humidity 83    
Minimum Humidity 24    
Precipitation  
Precipitation T in 0.13 in 1.30 in (1979)
Month to date precipitation T 3.53  
Year to date precipitation T 3.53  
Since 1 July precipitation 0.43  
Sea Level Pressure  
Sea Level Pressure 29.90 in    
Wind  
Wind Speed 8 mph (NW)    
Max Wind Speed 21 mph    
Max Gust Speed 28 mph    
Visibility 10 miles    
Events Rain    
T = Trace of Precipitation, MM = Missing Value Source: NWS Daily Summary

Daily Weather History Graph

Daily Weather History Graph

Search for Another Location

Airport or City:

Trip Planner

Search our weather history database for the weather conditions in past years. The results will help you decide how hot, cold, wet, or windy it might be!

Date:

Astronomy

Jan. 31, 2014 Rise Set
Actual Time 6:51 AM PST 5:22 PM PST
Civil Twilight 6:25 AM PST 5:49 PM PST
Nautical Twilight 5:55 AM PST 6:19 PM PST
Astronomical Twilight 5:25 AM PST 6:48 PM PST
Moon 7:09 AM PST (1/31) 6:46 PM PST (1/31)
Length of Visible Light 11h 24m
Length of Day
10h 31m
New Moon, 1% of the Moon is Illuminated
Jan 31
New Moon
Feb 6
First Quarter
Feb 14
Full
Feb 22
Last Quarter
Mar 1
New

Hourly Weather History & Observations

Time (PST) Temp. Dew Point Humidity Pressure Visibility Wind Dir Wind Speed Gust Speed Precip Events Conditions
12:30 AM 57.2 °F 50.0 °F 77% 29.88 in 10.0 mi Calm Calm - 0.00 in Rain Light Rain
12:53 AM 57.9 °F 50.0 °F 75% 29.86 in 10.0 mi South 3.5 mph - 0.00 in   Overcast
1:53 AM 57.0 °F 50.0 °F 77% 29.85 in 10.0 mi SSE 3.5 mph - N/A   Overcast
2:22 AM 57.2 °F 50.0 °F 77% 29.88 in 10.0 mi SE 3.5 mph - N/A   Scattered Clouds
2:53 AM 55.9 °F 50.0 °F 80% 29.85 in 10.0 mi SE 3.5 mph - N/A   Scattered Clouds
3:53 AM 54.0 °F 48.0 °F 80% 29.85 in 10.0 mi Calm Calm - N/A   Partly Cloudy
4:53 AM 54.0 °F 48.0 °F 80% 29.86 in 10.0 mi NNE 3.5 mph - N/A   Mostly Cloudy
5:53 AM 54.0 °F 46.9 °F 77% 29.88 in 10.0 mi Calm Calm - N/A   Scattered Clouds
6:53 AM 54.0 °F 46.9 °F 77% 29.89 in 10.0 mi Calm Calm - N/A   Mostly Cloudy
7:03 AM 55.4 °F 46.4 °F 72% 29.92 in 10.0 mi Calm Calm - N/A   Mostly Cloudy
7:53 AM 55.0 °F 45.0 °F 69% 29.91 in 10.0 mi West 5.8 mph - N/A   Partly Cloudy
8:53 AM 55.9 °F 45.0 °F 67% 29.93 in 10.0 mi West 3.5 mph - N/A   Clear
9:53 AM 57.9 °F 46.0 °F 65% 29.94 in 10.0 mi West 5.8 mph - N/A   Clear
10:53 AM 61.0 °F 37.9 °F 42% 29.92 in 10.0 mi NW 6.9 mph - N/A   Clear
11:53 AM 64.0 °F 34.0 °F 33% 29.90 in 10.0 mi West 10.4 mph 16.1 mph N/A   Clear
12:17 PM 64.4 °F 33.8 °F 32% 29.91 in 10.0 mi Variable 3.5 mph - N/A   Clear
12:25 PM 64.4 °F 32.0 °F 30% 29.90 in 10.0 mi WNW 9.2 mph - N/A   Clear
12:53 PM 66.9 °F 32.0 °F 27% 29.87 in 10.0 mi NNW 12.7 mph - N/A   Clear
1:53 PM 64.9 °F 30.0 °F 27% 29.86 in 10.0 mi NW 12.7 mph 20.7 mph N/A   Clear
2:53 PM 64.9 °F 30.0 °F 27% 29.86 in 10.0 mi North 13.8 mph 20.7 mph N/A   Clear
3:53 PM 64.0 °F 30.0 °F 28% 29.87 in 10.0 mi North 19.6 mph 26.5 mph N/A   Clear
4:53 PM 62.1 °F 28.9 °F 29% 29.89 in 10.0 mi North 17.3 mph - N/A   Clear
5:53 PM 60.1 °F 28.9 °F 31% 29.89 in 10.0 mi North 15.0 mph - N/A   Clear
6:53 PM 59.0 °F 25.0 °F 27% 29.91 in 10.0 mi North 15.0 mph - N/A   Clear
7:53 PM 57.9 °F 21.9 °F 25% 29.92 in 10.0 mi North 15.0 mph 20.7 mph N/A   Clear
8:53 PM 57.0 °F 25.0 °F 29% 29.94 in 10.0 mi NW 9.2 mph - N/A   Clear
9:53 PM 55.9 °F 23.0 °F 28% 29.94 in 10.0 mi NW 5.8 mph - N/A   Clear
10:53 PM 55.0 °F 23.0 °F 29% 29.95 in 10.0 mi West 8.1 mph - N/A   Clear
11:53 PM 55.0 °F 24.1 °F 30% 29.94 in 10.0 mi WNW 8.1 mph - N/A   Clear